Temperature
18 18 18 18 17 17 17 16 17 17 17 17 16 16 16 16 16 16 16 16 16 17 17 17 17 17 17 17 17 17 17 17 17 17 17 17 17 17 17 17 17 17 17
18 18 18 18 17 17 17 17 17 17 17 17 16 16 16 16 16 16 16 16 16 16 16 16 17 17 16 16 17 17 17 17 17 17 17 16 16 16 16 16 17 17 17
18 18 18 18 17 17 17 17 17 17 17 17 16 16 16 16 16 16 16 16 16 16 16 16 16 16 16 16 16 16 16 16 16 16 16 16 16 16 16 16 16 16 17
17 17 18 17 17 17 17 17 17 17 17 17 16 16 16 16 16 16 16 16 16 16 16 16 16 16 17 17 17 16 16 16 16 16 16 16 16 16 16 16 16 16 16
17 17 17 17 17 17 17 17 17 17 17 17 16 16 16 16 16 16 16 16 16 16 16 16 16 16 17 17 16 16 16 16 16 16 16 16 16 16 16 16 16 16 16
18 17 17 17 17 17 17 17 17 17 16 16 16 16 16 16 16 16 16 16 16 16 16 16 16 16 16 16 16 16 16 16 16 16 16 16 16 16 16 16 16 16 16
18 18 18 17 17 17 17 17 17 16 16 16 16 16 16 16 16 16 16 16 16 16 16 16 16 16 16 16 16 16 16 16 16 16 16 16 16 16 16 16 16 15 15
18 18 18 17 17 17 17 17 17 16 16 16 16 16 15 15 15 16 16 15 15 16 16 16 16 16 16 16 16 16 16 16 16 16 16 16 16 16 16 16 16 15 15
18 18 17 17 17 17 17 17 17 16 16 16 16 16 16 16 16 16 16 16 15 15 15 15 15 15 16 16 16 16 16 16 16 16 16 16 16 16 16 16 15 15 15
17 17 17 17 17 17 17 17 17 16 16 16 15 15 15 16 16 16 16 16 15 15 15 15 15 15 15 15 16 16 16 16 16 16 16 16 16 16 16 15 15 15 15
17 17 17 17 17 17 16 16 16 16 16 15 15 15 15 15 15 16 16 16 16 16 15 15 15 15 15 15 15 15 15 16 16 16 16 16 16 16 16 15 15 15 15
17 17 17 17 17 16 16 16 16 16 15 15 15 15 15 15 15 15 16 16 16 16 16 15 15 15 15 15 15 15 15 15 15 16 16 16 16 16 16 15 15 15 15
17 17 17 16 16 16 16 16 16 15 15 15 15 15 15 15 15 15 15 15 15 16 16 16 16 16 15 15 15 15 15 15 15 15 15 15 15 15 15 15 15 15 15
17 16 16 16 16 16 16 15 15 15 15 15 15 15 15 15 15 15 15 15 15 15 15 16 16 16 16 15 15 15 15 15 15 15 15 15 15 15 15 15 15 15 15
16 16 16 16 16 16 15 15 15 15 15 15 14 14 14 14 14 14 14 14 15 15 15 16 16 16 16 16 15 15 15 15 15 15 15 15 15 15 15 15 15 15 14
16 16 16 16 16 15 15 15 15 15 14 14 14 14 14 14 14 14 14 14 14 14 15 15 16 16 16 16 15 15 15 15 15 15 15 15 15 15 15 15 15 14 14
16 16 16 16 15 15 15 15 15 14 14 14 14 14 14 14 14 14 14 14 14 14 14 15 15 15 15 15 15 15 15 15 15 14 14 14 14 14 14 14 14 14 14
16 16 16 15 15 15 15 15 15 14 14 14 14 13 13 13 13 13 14 14 14 14 14 14 14 15 15 15 15 15 15 14 14 14 14 14 14 14 14 14 14 14 14
16 16 15 15 15 15 15 15 15 14 14 14 13 13 13 13 13 13 13 13 13 13 13 13 14 14 14 15 15 15 15 15 14 14 14 14 14 14 14 14 14 14 14
16 16 15 15 15 15 15 15 14 14 14 14 13 13 13 13 13 13 13 13 13 13 13 13 13 13 14 14 14 15 15 15 14 14 14 14 14 14 14 14 14 14 14
16 16 16 15 15 15 15 15 14 14 14 14 14 13 13 13 13 13 13 13 13 13 13 13 13 13 13 13 14 14 14 14 14 14 14 14 14 14 14 14 14 14 14
16 16 16 15 15 15 15 15 14 14 14 14 14 14 13 13 13 13 13 13 13 12 12 12 12 12 13 13 13 13 13 14 14 14 14 14 14 14 14 14 13 13 14
16 16 15 15 15 15 15 14 14 14 14 14 14 14 14 14 14 13 13 13 13 13 12 12 12 12 12 12 12 13 13 13 13 13 13 14 14 14 14 14 13 13 13
15 15 15 15 15 14 14 14 14 14 14 14 14 14 14 14 14 14 14 13 13 13 13 13 12 12 12 12 12 12 12 12 13 13 13 13 14 14 14 14 13 13 13
14 14 14 14 14 14 14 14 14 14 14 14 14 14 14 14 14 14 14 14 14 13 13 13 13 12 12 12 12 12 12 12 13 13 13 13 13 13 14 14 14 13 13
12 12 13 13 13 13 13 14 14 14 14 14 14 14 14 14 14 14 14 14 14 13 13 13 13 13 12 12 12 12 12 12 12 12 13 12 13 13 13 14 14 14 13
Wind_Speed
4 3 3 3 3 2 1 0 1 0 1 3 4 5 4 4 3 3 3 2 3 4 5 6 5 5 4 4 4 4 5 5 5 5 6 5 4 3 3 2 2 3 3
5 4 3 3 4 4 3 2 1 2 2 4 4 4 4 3 3 4 4 5 5 5 6 7 7 6 5 5 4 4 4 4 4 5 5 5 3 2 2 2 2 2 3
8 5 4 4 4 5 4 2 2 3 3 4 4 4 3 3 4 4 5 6 6 7 7 7 7 7 6 5 5 5 4 4 3 3 4 4 3 2 1 1 1 1 2
10 6 4 4 5 6 4 3 3 3 3 4 3 3 2 2 3 4 5 6 7 7 8 8 8 7 6 5 5 5 5 4 4 3 2 2 2 2 2 1 1 1 1
12 8 5 4 5 4 3 4 3 3 3 4 3 2 2 1 1 2 3 5 6 7 7 8 8 7 6 5 4 4 4 4 4 3 2 1 0 2 2 3 2 2 1
12 9 5 5 5 4 4 4 4 3 3 4 4 3 2 1 1 0 0 2 3 4 4 4 5 6 6 6 5 5 5 4 4 3 2 1 1 1 2 3 3 3 2
11 9 6 5 5 5 5 5 4 4 3 3 4 3 2 2 1 2 1 0 1 1 1 2 2 3 4 6 6 5 5 4 4 4 4 3 3 2 2 2 3 3 2
9 9 7 6 6 5 6 6 5 4 3 4 4 3 1 2 2 2 2 3 3 2 2 2 1 0 1 2 4 5 6 5 5 4 5 4 4 3 3 3 3 3 2
8 7 7 6 7 7 7 8 8 7 5 3 2 4 4 5 3 2 3 3 3 3 3 4 5 4 3 1 1 2 4 4 4 4 5 5 5 5 5 4 3 3 3
6 7 7 7 7 7 7 8 8 6 6 5 2 1 1 3 3 2 2 2 4 5 5 4 6 8 7 5 3 2 1 2 3 3 4 5 5 5 5 6 5 4 3
5 6 6 6 7 7 8 8 8 8 6 6 5 3 2 0 1 3 2 3 2 4 5 5 6 8 10 8 7 5 3 2 2 3 4 4 6 6 6 6 6 5 4
2 4 4 5 6 6 7 7 8 9 8 7 7 6 5 4 4 3 3 3 4 3 4 4 5 8 11 11 10 7 6 4 3 3 3 4 5 6 7 7 7 7 6
2 3 4 4 4 5 5 6 7 8 9 9 9 8 7 6 4 4 4 3 3 2 2 3 5 9 11 12 12 10 9 7 5 3 2 2 3 5 6 6 7 7 7
2 2 3 4 4 4 5 5 5 6 7 9 10 9 7 7 6 5 5 5 3 2 3 5 3 8 11 13 15 13 10 10 9 6 4 2 1 2 4 5 6 6 7
2 3 3 3 3 3 4 4 4 5 6 7 8 9 8 7 6 6 5 5 6 4 4 5 5 5 11 12 14 14 13 12 11 9 7 5 3 1 2 3 4 5 5
3 4 4 3 2 2 3 3 3 4 5 5 5 7 8 6 6 7 6 6 6 6 5 4 5 3 6 9 13 14 14 13 13 12 10 7 5 3 2 1 2 3 4
4 4 4 4 3 2 2 2 2 3 4 4 4 6 7 7 7 7 6 6 6 6 6 4 3 2 5 5 7 11 13 12 12 13 12 10 9 7 5 4 3 3 3
4 4 4 4 3 3 2 2 2 2 2 2 3 4 5 5 8 7 7 8 7 7 6 6 3 3 4 4 4 5 8 10 11 13 14 13 11 10 8 7 6 4 4
3 3 4 4 4 4 3 3 3 2 1 1 1 2 2 3 5 5 7 7 7 7 6 5 4 3 2 2 2 3 4 5 8 11 13 14 14 13 11 10 9 7 6
3 4 4 4 4 4 4 4 4 3 2 2 1 1 1 1 2 3 4 5 6 6 6 5 4 3 2 2 3 3 3 5 5 7 10 12 13 14 14 13 12 11 9
3 3 4 4 4 4 5 5 5 4 4 3 1 1 1 1 2 2 2 3 4 4 5 4 4 3 4 3 3 3 4 2 4 5 4 6 8 9 12 14 15 14 13
2 2 3 4 5 5 7 9 7 5 4 4 3 2 2 2 3 3 3 4 5 4 4 4 3 4 4 4 3 3 3 2 3 3 4 4 5 8 10 13 16 16 16
3 2 3 3 5 6 8 9 11 6 5 4 4 3 2 2 3 3 4 5 5 7 7 4 4 4 4 5 5 4 4 4 4 3 4 4 4 7 9 14 17 19 19
4 3 3 3 4 5 6 8 10 7 5 5 5 4 4 4 4 4 4 4 5 5 6 6 5 5 5 5 5 5 4 3 3 2 4 4 3 5 4 10 17 20 21
5 4 4 4 3 4 4 5 6 5 4 5 4 4 4 5 5 6 5 5 5 5 7 9 9 8 8 8 6 3 3 3 3 3 5 4 3 3 3 4 11 18 21
5 5 5 5 4 4 4 2 5 4 4 3 2 2 4 4 5 4 5 5 5 4 2 2 3 5 5 5 7 6 5 5 3 3 4 4 2 2 3 2 1 5 11
Wind_Direction
173 176 181 181 173 166 164 207 1 44 130 122 115 115 102 90 78 55 35 72 114 130 136 139 136 135 132 141 149 155 164 171 169 165 156 147 137 119 101 82 61 35 13
180 176 182 188 195 191 185 185 209 166 146 133 121 118 106 96 86 71 56 58 79 97 111 114 113 113 110 112 120 128 139 162 178 181 172 166 165 154 126 106 74 36 7
195 187 188 196 196 185 173 152 117 118 120 121 121 115 105 99 94 80 71 66 68 80 93 99 101 102 104 102 101 105 109 112 143 176 179 179 183 195 192 158 118 31 350
205 194 198 210 188 167 160 147 132 113 117 126 128 122 109 109 99 88 77 70 68 69 77 83 83 84 91 95 98 103 107 102 99 111 140 167 193 226 243 236 217 268 330
207 199 206 213 181 161 163 166 148 141 149 146 136 110 105 111 85 98 81 72 71 71 70 71 69 67 75 81 89 100 108 103 98 94 94 96 212 248 254 244 235 245 286
205 199 205 209 182 173 180 172 158 140 143 147 128 90 52 348 310 307 107 82 78 71 69 71 66 61 64 64 75 88 99 101 95 88 76 51 357 287 279 269 265 256 264
200 197 201 198 187 192 193 175 153 147 132 132 104 73 19 9 253 255 259 198 154 104 93 76 68 61 55 56 64 75 89 90 89 76 61 46 28 5 336 315 298 290 293
196 199 195 194 192 191 186 179 159 150 152 161 137 124 91 325 300 230 222 221 220 217 219 224 212 170 84 68 65 71 75 79 81 72 54 42 33 19 5 338 325 316 315
195 197 193 190 190 188 194 191 178 169 168 180 168 150 161 212 248 283 236 220 208 211 227 229 227 227 217 202 106 72 75 72 75 67 52 43 38 32 21 11 353 340 344
197 198 193 189 192 193 197 196 186 178 165 175 174 133 161 162 164 228 287 243 216 218 221 222 221 225 224 223 228 227 123 81 67 55 45 40 37 35 28 23 15 357 342
198 198 194 188 194 197 199 194 184 183 182 177 170 155 141 129 143 156 229 261 254 234 219 218 220 221 223 223 227 229 216 159 94 70 48 37 34 32 28 24 21 13 2
198 196 186 187 194 197 197 195 191 189 192 186 182 182 181 181 191 175 190 223 237 249 229 219 217 218 218 220 224 227 220 201 159 111 73 51 39 33 26 20 18 18 20
206 206 186 185 189 196 195 188 190 196 195 197 200 205 204 204 180 171 173 192 225 257 263 239 222 216 214 215 220 222 219 211 196 176 144 84 51 39 31 23 21 21 23
201 189 178 180 187 187 188 186 194 200 201 208 213 210 211 215 197 184 177 168 185 242 265 256 232 214 212 209 216 215 216 214 209 203 196 180 115 54 38 29 24 21 23
163 144 143 149 168 183 187 184 199 207 204 211 215 213 214 215 206 203 190 179 176 198 238 243 234 218 209 208 211 209 212 215 213 212 209 205 197 148 41 25 20 19 22
135 132 129 133 140 160 178 184 204 212 212 218 214 214 216 212 208 206 204 198 186 184 214 233 230 217 196 207 209 206 211 216 218 217 215 216 217 220 237 311 348 360 5
149 151 148 144 144 143 141 159 195 202 216 225 223 220 223 209 207 206 203 200 198 187 212 229 218 196 185 195 194 201 210 214 219 220 218 220 223 226 232 247 274 303 323
169 165 158 156 162 159 155 161 178 181 204 222 228 228 229 217 213 207 205 206 204 198 200 217 203 191 196 195 187 191 205 216 220 223 223 223 225 228 230 236 246 261 278
184 177 174 181 184 179 174 177 173 164 174 199 219 232 241 226 218 212 209 208 205 202 196 199 198 178 167 148 155 197 206 213 221 226 227 229 229 229 231 234 240 248 256
206 204 203 203 200 194 189 183 174 165 159 154 152 173 217 221 226 222 215 210 202 198 195 194 189 178 173 158 158 182 210 213 223 221 225 228 230 232 233 234 237 241 245
241 217 211 212 207 201 203 194 187 182 177 173 168 173 216 214 212 211 204 196 195 201 194 193 190 181 178 169 189 181 206 208 227 214 218 226 224 229 232 233 235 236 236
287 233 220 219 221 224 218 203 192 190 191 195 209 229 255 253 246 238 227 207 195 195 199 193 195 200 198 189 176 176 174 176 251 204 201 235 206 232 234 231 232 231 231
335 301 263 238 241 245 239 220 205 190 195 205 212 224 247 238 232 236 252 244 228 219 205 187 192 202 195 193 179 183 190 201 222 191 175 244 207 238 239 234 231 230 228
344 332 312 282 264 263 250 231 211 192 195 209 213 219 236 255 240 219 221 236 242 239 227 218 213 215 210 198 191 191 194 210 234 192 172 236 222 233 241 233 232 228 226
349 343 335 327 305 301 292 244 194 175 193 212 220 226 235 250 260 231 211 232 253 260 254 240 235 233 229 218 197 181 188 207 241 226 189 216 243 235 246 243 235 229 226
354 359 7 6 355 339 336 287 178 167 184 200 212 242 255 263 270 233 202 214 248 265 243 239 240 242 234 229 215 206 206 212 222 242 194 198 232 214 279 268 268 234 229
Height
1539 1541 1542 1544 1545 1547 1549 1550 1551 1552 1553 1554 1555 1555 1555 1555 1555 1555 1555 1556 1556 1557 1557 1557 1558 1558 1559 1560 1560 1561 1562 1563 1564 1565 1566 1567 1568 1568 1569 1569 1569 1569 1569
1539 1541 1542 1544 1546 1547 1549 1550 1552 1552 1553 1554 1555 1555 1555 1555 1555 1555 1555 1556 1556 1557 1557 1557 1558 1558 1559 1559 1560 1560 1561 1562 1563 1564 1565 1566 1567 1567 1568 1568 1568 1569 1569
1539 1541 1542 1544 1546 1547 1549 1550 1551 1552 1553 1554 1555 1555 1555 1555 1555 1556 1556 1556 1557 1557 1557 1557 1558 1558 1558 1559 1559 1559 1560 1561 1562 1563 1564 1564 1565 1566 1567 1567 1567 1567 1567
1538 1540 1541 1543 1545 1547 1548 1550 1551 1552 1553 1554 1555 1555 1555 1556 1556 1556 1557 1557 1557 1557 1557 1558 1558 1558 1558 1558 1558 1559 1559 1560 1560 1561 1562 1563 1563 1564 1565 1565 1565 1566 1566
1537 1539 1541 1542 1544 1546 1547 1548 1550 1551 1552 1553 1554 1555 1555 1556 1556 1556 1557 1557 1557 1558 1558 1558 1558 1558 1558 1558 1558 1558 1558 1559 1559 1560 1560 1561 1561 1562 1563 1563 1564 1564 1564
1534 1536 1538 1540 1542 1543 1545 1546 1548 1549 1551 1552 1553 1554 1555 1555 1556 1556 1556 1557 1557 1557 1557 1558 1558 1558 1558 1558 1558 1558 1558 1558 1558 1558 1559 1559 1560 1560 1561 1561 1562 1562 1563
1531 1533 1534 1537 1539 1540 1542 1544 1545 1547 1549 1550 1552 1552 1553 1554 1554 1555 1555 1556 1556 1556 1557 1557 1557 1557 1557 1557 1557 1557 1557 1558 1558 1558 1558 1558 1558 1558 1559 1559 1560 1560 1561
1528 1530 1531 1533 1535 1536 1538 1540 1542 1544 1546 1548 1549 1551 1551 1553 1552 1553 1554 1554 1555 1555 1556 1556 1557 1557 1557 1557 1557 1557 1557 1557 1557 1557 1557 1557 1557 1557 1557 1558 1558 1558 1559
1525 1526 1527 1529 1530 1532 1534 1535 1537 1539 1541 1544 1546 1548 1549 1548 1550 1551 1551 1552 1553 1554 1555 1556 1556 1556 1557 1557 1557 1557 1557 1557 1557 1557 1557 1557 1556 1556 1556 1556 1556 1557 1557
1522 1523 1524 1525 1526 1528 1529 1531 1532 1534 1536 1539 1541 1543 1546 1547 1547 1548 1549 1550 1551 1552 1553 1554 1555 1556 1556 1556 1556 1556 1556 1557 1557 1556 1556 1556 1556 1555 1555 1555 1555 1555 1555
1518 1519 1520 1521 1522 1523 1524 1526 1527 1529 1531 1533 1535 1538 1540 1543 1544 1545 1546 1547 1548 1549 1550 1552 1553 1554 1555 1555 1555 1555 1555 1556 1556 1556 1556 1555 1555 1554 1554 1554 1554 1554 1554
1515 1516 1517 1518 1519 1519 1520 1521 1522 1524 1525 1528 1530 1532 1535 1537 1539 1541 1542 1544 1545 1546 1547 1549 1550 1552 1553 1553 1554 1554 1554 1554 1554 1555 1554 1554 1554 1553 1553 1552 1552 1552 1552
1513 1514 1515 1515 1516 1516 1517 1517 1518 1519 1521 1523 1525 1527 1529 1532 1534 1537 1539 1541 1542 1543 1544 1545 1547 1549 1550 1551 1552 1552 1553 1553 1553 1553 1553 1553 1552 1552 1551 1551 1550 1550 1550
1511 1511 1512 1512 1512 1513 1513 1514 1515 1516 1517 1518 1520 1522 1525 1526 1529 1531 1534 1537 1538 1540 1540 1542 1543 1545 1547 1548 1549 1550 1551 1551 1551 1551 1551 1551 1551 1550 1549 1549 1548 1548 1548
1509 1510 1510 1510 1510 1510 1510 1511 1511 1512 1513 1514 1516 1517 1519 1521 1524 1526 1529 1531 1534 1535 1536 1538 1540 1542 1543 1545 1547 1547 1548 1549 1549 1549 1550 1549 1549 1548 1548 1547 1546 1546 1546
1508 1508 1508 1508 1508 1508 1508 1508 1508 1509 1509 1510 1511 1512 1514 1516 1518 1520 1523 1525 1528 1530 1531 1533 1536 1538 1539 1541 1543 1544 1546 1546 1547 1547 1547 1547 1547 1546 1546 1545 1544 1544 1544
1507 1507 1507 1507 1507 1507 1506 1506 1506 1506 1506 1506 1507 1508 1509 1511 1512 1514 1516 1519 1522 1524 1525 1528 1531 1533 1535 1537 1539 1541 1542 1543 1544 1545 1545 1545 1545 1544 1544 1543 1543 1542 1542
1506 1506 1506 1506 1506 1506 1505 1505 1504 1504 1504 1503 1504 1504 1505 1506 1507 1509 1510 1513 1515 1517 1520 1522 1525 1528 1530 1532 1534 1536 1538 1539 1540 1541 1542 1542 1542 1542 1542 1541 1541 1540 1540
1505 1505 1505 1505 1505 1505 1505 1504 1504 1503 1502 1502 1502 1502 1502 1503 1503 1504 1506 1507 1509 1512 1514 1517 1519 1522 1524 1527 1529 1531 1533 1535 1536 1538 1538 1539 1539 1539 1539 1539 1538 1538 1538
1503 1504 1504 1504 1504 1504 1504 1503 1503 1502 1502 1501 1501 1500 1500 1501 1501 1502 1502 1504 1505 1507 1509 1511 1513 1516 1519 1521 1524 1526 1528 1530 1532 1534 1534 1535 1536 1536 1536 1536 1536 1536 1535
1501 1501 1502 1502 1502 1502 1503 1503 1502 1502 1501 1501 1501 1500 1500 1500 1500 1500 1501 1501 1502 1503 1505 1507 1508 1510 1513 1515 1518 1521 1524 1526 1527 1529 1530 1531 1531 1532 1532 1532 1533 1532 1532
1498 1499 1499 1499 1500 1500 1500 1501 1501 1501 1501 1501 1501 1500 1500 1500 1500 1500 1500 1501 1501 1502 1502 1503 1505 1507 1508 1511 1513 1515 1518 1520 1522 1524 1525 1526 1527 1527 1528 1528 1528 1528 1528
1494 1495 1495 1496 1496 1497 1497 1498 1498 1499 1499 1500 1500 1500 1500 1500 1500 1500 1500 1500 1501 1501 1502 1502 1503 1504 1505 1507 1509 1511 1513 1515 1517 1519 1520 1519 1521 1521 1522 1523 1523 1523 1523
1490 1490 1491 1492 1492 1493 1494 1494 1495 1496 1497 1498 1498 1499 1499 1500 1500 1500 1500 1500 1500 1501 1501 1501 1502 1503 1504 1505 1505 1507 1508 1510 1512 1514 1515 1514 1515 1516 1517 1517 1517 1518 1518
1487 1486 1487 1487 1488 1489 1490 1491 1492 1493 1494 1495 1496 1497 1498 1499 1499 1499 1499 1499 1499 1499 1499 1500 1500 1501 1502 1503 1503 1504 1505 1507 1508 1509 1510 1510 1509 1510 1510 1511 1512 1512 1513
1485 1485 1484 1485 1485 1486 1487 1487 1488 1490 1491 1492 1493 1495 1496 1497 1497 1497 1498 1498 1498 1498 1498 1498 1499 1499 1500 1501 1501 1502 1503 1504 1504 1505 1505 1506 1505 1505 1505 1505 1506 1506 1507